Station Historical Data
Daily Summary for November 20, 2017 Units:  Metric    English   Both
« Previous Day
Next Day »
Daily Weekly Monthly Yearly Custom
  High: Low: Average:
Temperature: 15.1 °C -1.4 °C 5.6 °C
Dew Point: 2.2 °C -3.1 °C -0.8 °C
Humidity: 90% 31% 67%
Wind Speed: 5.6km/h 0km/h 1km/h
Wind Gust: 5.6km/h - -
Wind- - West
Pressure: 1026.3 hPa 1022.6 hPa -
Precipitation: 0 mm    
Historical Graphs
 
 
Tabular Data for November 20, 2017
Time Temperature Dew Point Pressure Wind Wind Speed Wind Gust Humidity Rainfall Rate (Hourly) solar Conditions
00:00 2.2 °C -1.4 °C 1022.6 hPa Calm     77% 0 mm WeatherDisplay:10.37 W/m2 CLR
00:05 2.2 °C -1.6 °C 1022.6 hPa Calm     76% 0 mm WeatherDisplay:10.37 W/m2 CLR
00:10 2.1 °C -1.7 °C 1022.9 hPa Calm     76% 0 mm WeatherDisplay:10.37 W/m2 CLR
00:15 2 °C -1.4 °C 1022.9 hPa Calm     78% 0 mm WeatherDisplay:10.37 W/m2 CLR
00:20 1.9 °C -1.4 °C 1023.2 hPa Calm     79% 0 mm WeatherDisplay:10.37 W/m2 CLR
00:25 1.8 °C -1.5 °C 1022.9 hPa Calm     79% 0 mm WeatherDisplay:10.37 W/m2 CLR
00:30 1.7 °C -1.6 °C 1023.2 hPa Calm     79% 0 mm WeatherDisplay:10.37 W/m2 CLR
00:36 1.6 °C -1.5 °C 1023.2 hPa Calm     80% 0 mm WeatherDisplay:10.37 W/m2 CLR
00:38 1.6 °C -1.5 °C 1023.2 hPa Calm     80% 0 mm WeatherDisplay:10.37 W/m2 CLR
00:43 1.5 °C -1.6 °C 1022.9 hPa Calm     80% 0 mm WeatherDisplay:10.37 W/m2 CLR
00:48 1.4 °C -1.6 °C 1022.9 hPa Calm     80% 0 mm WeatherDisplay:10.37 W/m2 CLR
00:53 1.4 °C -1.7 °C 1022.9 hPa Calm     80% 0 mm WeatherDisplay:10.37 W/m2 CLR
00:58 1.3 °C -1.6 °C 1023.2 hPa Calm     81% 0 mm WeatherDisplay:10.37 W/m2 CLR
01:03 1.3 °C -1.6 °C 1023.2 hPa Calm     81% 0 mm WeatherDisplay:10.37 W/m2 CLR
01:08 1.2 °C -1.8 °C 1023.2 hPa Calm     80% 0 mm WeatherDisplay:10.37 W/m2 CLR
01:14 1.2 °C -1.8 °C 1023.2 hPa Calm     80% 0 mm WeatherDisplay:10.37 W/m2 CLR
01:19 1.2 °C -1.9 °C 1023.2 hPa Calm     80% 0 mm WeatherDisplay:10.37 W/m2 CLR
01:33 1.2 °C -1.9 °C 1023.2 hPa Calm     80% 0 mm WeatherDisplay:10.37 W/m2 CLR
01:38 1.1 °C -1.9 °C 1023.2 hPa Calm     80% 0 mm WeatherDisplay:10.37 W/m2 CLR
01:49 1.1 °C -1.8 °C 1023.2 hPa Calm     81% 0 mm WeatherDisplay:10.37 W/m2 CLR
01:54 0.9 °C -1.9 °C 1023.2 hPa Calm     81% 0 mm WeatherDisplay:10.37 W/m2 CLR
02:04 0.8 °C -2.1 °C 1023.6 hPa Calm     81% 0 mm WeatherDisplay:10.37 W/m2 CLR
02:09 0.8 °C -2.1 °C 1023.6 hPa Calm     81% 0 mm WeatherDisplay:10.37 W/m2 CLR
02:19 0.7 °C -2.2 °C 1023.6 hPa Calm     81% 0 mm WeatherDisplay:10.37 W/m2 CLR
02:24 0.6 °C -2.1 °C 1023.6 hPa Calm     82% 0 mm WeatherDisplay:10.37 W/m2 CLR
02:30 0.7 °C -2.2 °C 1023.6 hPa Calm   0.2 km/h 81% 0 mm WeatherDisplay:10.37 W/m2 CLR
02:35 0.7 °C -2.2 °C 1023.6 hPa WNW 1.9 km/h   81% 0 mm WeatherDisplay:10.37 W/m2 CLR
02:40 0.7 °C -2.2 °C 1023.6 hPa WNW 1.9 km/h 1.9 km/h 81% 0 mm WeatherDisplay:10.37 W/m2 CLR
02:45 0.8 °C -2.1 °C 1023.6 hPa WSW 1.9 km/h   81% 0 mm WeatherDisplay:10.37 W/m2 CLR
02:50 0.8 °C -2.2 °C 1023.6 hPa WSW 1.9 km/h   80% 0 mm WeatherDisplay:10.37 W/m2 CLR
02:55 0.8 °C -2.3 °C 1023.6 hPa West 1.9 km/h 1.9 km/h 80% 0 mm WeatherDisplay:10.37 W/m2 CLR
03:00 0.8 °C -2.2 °C 1023.9 hPa WSW 1.9 km/h   80% 0 mm WeatherDisplay:10.37 W/m2 CLR
03:10 0.8 °C -2.3 °C 1023.6 hPa West 1.9 km/h   80% 0 mm WeatherDisplay:10.37 W/m2 CLR
03:15 0.8 °C -2.3 °C 1023.9 hPa West 1.9 km/h   80% 0 mm WeatherDisplay:10.37 W/m2 CLR
03:20 0.7 °C -2.3 °C 1023.6 hPa West 1.9 km/h   80% 0 mm WeatherDisplay:10.37 W/m2 CLR
03:25 0.7 °C -2.4 °C 1023.9 hPa SSW 1.9 km/h   80% 0 mm WeatherDisplay:10.37 W/m2 CLR
03:30 0.7 °C -2.3 °C 1023.9 hPa SSE 1.9 km/h   80% 0 mm WeatherDisplay:10.37 W/m2 CLR
03:41 0.7 °C -2.3 °C 1023.6 hPa SSW 3.7 km/h   80% 0 mm WeatherDisplay:10.37 W/m2 CLR
03:51 0.6 °C -2.3 °C 1023.9 hPa Calm     81% 0 mm WeatherDisplay:10.37 W/m2 CLR
03:56 0.4 °C -2.4 °C 1023.9 hPa Calm     81% 0 mm WeatherDisplay:10.37 W/m2 CLR
04:01 0.4 °C -2.3 °C 1023.9 hPa Calm     82% 0 mm WeatherDisplay:10.37 W/m2 CLR
04:06 0.3 °C -2.6 °C 1023.9 hPa Calm     81% 0 mm WeatherDisplay:10.37 W/m2 CLR
04:11 0.3 °C -2.4 °C 1023.9 hPa Calm     82% 0 mm WeatherDisplay:10.37 W/m2 CLR
04:16 0.4 °C -2.5 °C 1023.9 hPa West 1.9 km/h   81% 0 mm WeatherDisplay:10.37 W/m2 CLR
04:21 0.4 °C -2.5 °C 1023.9 hPa SW 1.9 km/h   81% 0 mm WeatherDisplay:10.37 W/m2 CLR
04:26 0.4 °C -2.5 °C 1023.9 hPa East 1.9 km/h   81% 0 mm WeatherDisplay:10.37 W/m2 CLR
04:36 0.3 °C -2.4 °C 1023.9 hPa East 1.9 km/h   82% 0 mm WeatherDisplay:10.37 W/m2 CLR
04:41 0.3 °C -2.4 °C 1023.9 hPa East 1.9 km/h 1.9 km/h 82% 0 mm WeatherDisplay:10.37 W/m2 CLR
04:47 0.3 °C -2.4 °C 1023.9 hPa ESE 1.9 km/h   82% 0 mm WeatherDisplay:10.37 W/m2 CLR
04:52 0.2 °C -2.5 °C 1023.9 hPa ESE 1.9 km/h   82% 0 mm WeatherDisplay:10.37 W/m2 CLR
04:57 0.2 °C -2.6 °C 1023.9 hPa Calm     82% 0 mm WeatherDisplay:10.37 W/m2 CLR
05:07 0.1 °C -2.5 °C 1024.3 hPa SW 1.9 km/h   83% 0 mm WeatherDisplay:10.37 W/m2 CLR
05:12 0 °C -2.6 °C 1024.3 hPa Calm     83% 0 mm WeatherDisplay:10.37 W/m2 CLR
05:17 -0.1 °C -2.7 °C 1024.3 hPa Calm     83% 0 mm WeatherDisplay:10.37 W/m2 CLR
05:22 -0.2 °C -2.6 °C 1023.9 hPa Calm     84% 0 mm WeatherDisplay:10.37 W/m2 CLR
05:27 -0.2 °C -2.6 °C 1023.9 hPa Calm     84% 0 mm WeatherDisplay:10.37 W/m2 CLR
05:32 -0.2 °C -2.6 °C 1024.3 hPa Calm     84% 0 mm WeatherDisplay:10.37 W/m2 CLR
05:37 -0.3 °C -2.7 °C 1024.3 hPa Calm     84% 0 mm WeatherDisplay:10.37 W/m2 CLR
05:42 -0.3 °C -2.6 °C 1024.3 hPa Calm     85% 0 mm WeatherDisplay:10.37 W/m2 CLR
05:47 -0.4 °C -2.7 °C 1024.3 hPa Calm     85% 0 mm WeatherDisplay:10.37 W/m2 CLR
05:52 -0.5 °C -2.7 °C 1024.3 hPa Calm     85% 0 mm WeatherDisplay:10.37 W/m2 CLR
05:58 -0.5 °C -2.7 °C 1024.3 hPa North 1.9 km/h   85% 0 mm WeatherDisplay:10.37 W/m2 CLR
06:03 -0.4 °C -2.7 °C 1024.3 hPa NE 1.9 km/h   85% 0 mm WeatherDisplay:10.37 W/m2 CLR
06:08 -0.5 °C -2.7 °C 1024.6 hPa Calm     85% 0 mm WeatherDisplay:10.37 W/m2 CLR
06:13 -0.5 °C -2.7 °C 1024.6 hPa Calm     85% 0 mm WeatherDisplay:10.37 W/m2 CLR
06:18 -0.6 °C -2.8 °C 1024.6 hPa WSW 1.9 km/h   85% 0 mm WeatherDisplay:10.37 W/m2 CLR
06:23 -0.7 °C -2.7 °C 1024.6 hPa WSW 1.9 km/h   86% 0 mm WeatherDisplay:10.37 W/m2 CLR
06:33 -0.8 °C -2.9 °C 1024.6 hPa Calm     86% 0 mm WeatherDisplay:10.37 W/m2 CLR
06:38 -0.8 °C -2.7 °C 1024.6 hPa Calm     87% 0 mm WeatherDisplay:10.37 W/m2 CLR
06:43 -0.9 °C -2.8 °C 1024.6 hPa Calm     87% 0 mm WeatherDisplay:10.37 W/m2 CLR
06:48 -0.9 °C -2.8 °C 1024.6 hPa Calm     87% 0 mm WeatherDisplay:10.37 W/m2 CLR
06:53 -1 °C -2.9 °C 1024.6 hPa Calm     87% 0 mm WeatherDisplay:10.37 W/m2 CLR
06:59 -1.1 °C -2.9 °C 1024.6 hPa Calm     87% 0 mm WeatherDisplay:10.37 W/m2 CLR
07:04 -1.1 °C -2.8 °C 1024.6 hPa Calm     88% 0 mm WeatherDisplay:10.37 W/m2 CLR
07:09 -1.2 °C -2.9 °C 1024.6 hPa Calm     88% 0 mm WeatherDisplay:10.37 W/m2 CLR
07:14 -1.3 °C -3 °C 1024.6 hPa Calm     88% 0 mm WeatherDisplay:10.37 W/m2 CLR
07:19 -1.3 °C -3.1 °C 1024.6 hPa Calm     88% 0 mm WeatherDisplay:10.37 W/m2 CLR
07:24 -1.4 °C -3.1 °C 1024.9 hPa Calm     88% 0 mm WeatherDisplay:10.37 W/m2 CLR
07:29 -1.4 °C -3 °C 1024.9 hPa Calm     89% 0 mm WeatherDisplay:10.37 W/m2 CLR
07:34 -1.4 °C -2.9 °C 1024.9 hPa Calm     89% 0 mm WeatherDisplay:10.37 W/m2 CLR
07:39 -1.3 °C -2.9 °C 1024.9 hPa Calm     89% 0 mm WeatherDisplay:10.37 W/m2 CLR
07:44 -1.3 °C -2.8 °C 1024.9 hPa Calm     89% 0 mm WeatherDisplay:10.37 W/m2 CLR
07:49 -1.2 °C -2.7 °C 1024.9 hPa Calm     90% 0 mm WeatherDisplay:10.37 W/m2 CLR
07:55 -1.1 °C -2.6 °C 1025.3 hPa Calm     90% 0 mm WeatherDisplay:10.37 W/m2 CLR
08:00 -1 °C -2.4 °C 1025.3 hPa Calm     90% 0 mm WeatherDisplay:10.37 W/m2 CLR
08:05 -0.9 °C -2.3 °C 1025.3 hPa Calm     90% 0 mm WeatherDisplay:10.37 W/m2 FEW
08:09 -0.8 °C -2.3 °C 1025.3 hPa Calm     90% 0 mm WeatherDisplay:10.37 W/m2 FEW
08:14 -0.7 °C -2.1 °C 1025.3 hPa Calm     90% 0 mm WeatherDisplay:10.37 W/m2 FEW
08:24 -0.4 °C -2 °C 1025.6 hPa Calm     89% 0 mm WeatherDisplay:10.37 W/m2 FEW
08:29 -0.2 °C -1.8 °C 1025.6 hPa Calm     89% 0 mm WeatherDisplay:10.37 W/m2 FEW
08:34 0.1 °C -1.8 °C 1025.6 hPa Calm   0.2 km/h 87% 0 mm WeatherDisplay:10.37 W/m2 FEW
08:44 0.8 °C -1.4 °C 1026 hPa WNW 1.9 km/h   85% 0 mm WeatherDisplay:10.37 W/m2 FEW
08:49 1.3 °C -1.3 °C 1025.6 hPa Calm     83% 0 mm WeatherDisplay:10.37 W/m2 FEW
08:54 1.5 °C -1.4 °C 1026 hPa East 1.9 km/h   81% 0 mm WeatherDisplay:10.37 W/m2 FEW
09:00 1.9 °C -1.2 °C 1026 hPa East 1.9 km/h 1.9 km/h 80% 0 mm WeatherDisplay:10.37 W/m2 FEW
09:05 2.2 °C -1.3 °C 1026 hPa Calm   1.6 km/h 78% 0 mm WeatherDisplay:10.37 W/m2 FEW
09:13 2.6 °C -0.9 °C 1026 hPa West 1.9 km/h   78% 0 mm WeatherDisplay:10.37 W/m2 FEW
09:18 2.8 °C -1.2 °C 1026 hPa West 1.9 km/h   75% 0 mm WeatherDisplay:10.37 W/m2 FEW
09:23 3 °C -1.2 °C 1026.3 hPa SW 1.9 km/h   74% 0 mm WeatherDisplay:10.37 W/m2 FEW
09:28 3.3 °C -1.1 °C 1026.3 hPa SSE 1.9 km/h   73% 0 mm WeatherDisplay:10.37 W/m2 FEW
09:38 4 °C -1 °C 1026.3 hPa SSE 1.9 km/h 1.9 km/h 70% 0 mm WeatherDisplay:10.37 W/m2 FEW
09:43 4.4 °C -0.8 °C 1026.3 hPa South 1.9 km/h 1.9 km/h 69% 0 mm WeatherDisplay:10.37 W/m2 FEW
09:54 5.3 °C -0.6 °C 1026.3 hPa West 1.9 km/h 1.9 km/h 66% 0 mm WeatherDisplay:10.37 W/m2 CLR
09:59 5.6 °C -0.4 °C 1026.3 hPa South 1.9 km/h   65% 0 mm WeatherDisplay:10.37 W/m2 FEW
10:04 5.8 °C -0.4 °C 1026.3 hPa SE 1.9 km/h   64% 0 mm WeatherDisplay:10.37 W/m2 SCT
10:14 6.7 °C -0.1 °C 1026.3 hPa West 1.9 km/h   62% 0 mm WeatherDisplay:10.37 W/m2 SCT
10:19 7.1 °C -0.4 °C 1026.3 hPa West 1.9 km/h 1.9 km/h 59% 0 mm WeatherDisplay:10.37 W/m2 SCT
10:24 7.4 °C -0.1 °C 1026.3 hPa West 1.9 km/h 1.9 km/h 59% 0 mm WeatherDisplay:10.37 W/m2 SCT
10:30 8 °C 0.9 °C 1026.3 hPa North 1.9 km/h   61% 0 mm WeatherDisplay:10.37 W/m2 SCT
10:40 9.4 °C 0 °C 1026.3 hPa NNW 1.9 km/h 1.9 km/h 52% 0 mm WeatherDisplay:10.37 W/m2 SCT
10:45 9.6 °C -0.9 °C 1026.3 hPa WNW 1.9 km/h 1.9 km/h 48% 0 mm WeatherDisplay:10.37 W/m2 SCT
10:50 9.8 °C -1 °C 1026 hPa WNW 1.9 km/h   47% 0 mm WeatherDisplay:10.37 W/m2 SCT
10:55 10.1 °C -0.8 °C 1026.3 hPa WNW 1.9 km/h 1.9 km/h 47% 0 mm WeatherDisplay:10.37 W/m2 SCT
11:00 10.2 °C -0.6 °C 1026 hPa WNW 1.9 km/h   47% 0 mm WeatherDisplay:10.37 W/m2 SCT
11:05 10.2 °C -1.8 °C 1026 hPa West 1.9 km/h 1.9 km/h 43% 0 mm WeatherDisplay:10.37 W/m2 BKN
11:10 10.3 °C -0.8 °C 1026 hPa WNW 5.6 km/h   46% 0 mm WeatherDisplay:10.37 W/m2 BKN
11:15 10.3 °C -2.1 °C 1026 hPa NW 5.6 km/h   42% 0 mm WeatherDisplay:10.37 W/m2 BKN
11:20 10.4 °C -0.7 °C 1026 hPa WNW 1.9 km/h 1.9 km/h 46% 0 mm WeatherDisplay:10.37 W/m2 BKN
11:41 10.9 °C -1.8 °C 1026 hPa West 1.9 km/h 1.9 km/h 41% 0 mm WeatherDisplay:10.37 W/m2 BKN
12:16 12.3 °C -0.9 °C 1025.3 hPa NNW 3.7 km/h 3.7 km/h 40% 0 mm WeatherDisplay:10.37 W/m2 BKN
12:21 12.5 °C -1.4 °C 1025.3 hPa NW 3.7 km/h 3.7 km/h 38% 0 mm WeatherDisplay:10.37 W/m2 BKN
12:26 12.6 °C -1.4 °C 1024.9 hPa NW 5.6 km/h 5.6 km/h 38% 0 mm WeatherDisplay:10.37 W/m2 BKN
12:31 12.8 °C -0.8 °C 1024.9 hPa NW 5.6 km/h 5.6 km/h 39% 0 mm WeatherDisplay:10.37 W/m2 BKN
12:36 12.8 °C -0.8 °C 1024.9 hPa WNW 5.6 km/h   39% 0 mm WeatherDisplay:10.37 W/m2 BKN
12:42 13.1 °C -0.9 °C 1024.9 hPa NNW 1.9 km/h   38% 0 mm WeatherDisplay:10.37 W/m2 BKN
12:47 13.6 °C 0.2 °C 1024.9 hPa NNW 1.9 km/h 1.9 km/h 40% 0 mm WeatherDisplay:10.37 W/m2 BKN
12:52 13.9 °C -0.6 °C 1024.9 hPa NW 1.9 km/h   37% 0 mm WeatherDisplay:10.37 W/m2 BKN
12:57 13.8 °C -1.4 °C 1024.6 hPa WNW 1.9 km/h 1.9 km/h 35% 0 mm WeatherDisplay:10.37 W/m2 BKN
13:02 14.2 °C -0.3 °C 1024.6 hPa NNW 1.9 km/h 1.9 km/h 37% 0 mm WeatherDisplay:10.37 W/m2 BKN
13:07 14.8 °C -0.1 °C 1024.6 hPa NNW 1.9 km/h   36% 0 mm WeatherDisplay:10.37 W/m2 BKN
13:12 15.1 °C -0.7 °C 1024.6 hPa NW 1.9 km/h   34% 0 mm WeatherDisplay:10.37 W/m2 BKN
13:17 15.1 °C -1.1 °C 1024.6 hPa WNW 1.9 km/h   33% 0 mm WeatherDisplay:10.37 W/m2 BKN
13:28 14.8 °C -2.2 °C 1024.6 hPa NNW 3.7 km/h 3.7 km/h 31% 0 mm WeatherDisplay:10.37 W/m2 BKN
13:33 14.5 °C -2.4 °C 1024.3 hPa NNW 3.7 km/h   31% 0 mm WeatherDisplay:10.37 W/m2 BKN
13:38 14.4 °C -1.3 °C 1024.3 hPa NW 1.9 km/h   34% 0 mm WeatherDisplay:10.37 W/m2 BKN
13:43 14.3 °C -1.7 °C 1024.3 hPa NW 1.9 km/h   33% 0 mm WeatherDisplay:10.37 W/m2 BKN
13:48 14.3 °C -1.3 °C 1024.3 hPa NNW 3.7 km/h   34% 0 mm WeatherDisplay:10.37 W/m2 BKN
13:53 14.4 °C -1.3 °C 1024.3 hPa NW 3.7 km/h 3.7 km/h 34% 0 mm WeatherDisplay:10.37 W/m2 BKN
13:58 14.2 °C -1.1 °C 1024.3 hPa WNW 3.7 km/h 3.7 km/h 35% 0 mm WeatherDisplay:10.37 W/m2 BKN
14:04 14.1 °C -1.9 °C 1024.3 hPa WNW 3.7 km/h 3.7 km/h 33% 0 mm WeatherDisplay:10.37 W/m2 BKN
14:09 14.1 °C -1.9 °C 1024.3 hPa WNW 1.9 km/h   33% 0 mm WeatherDisplay:10.37 W/m2 BKN
14:14 14.1 °C -1.9 °C 1024.3 hPa NW 3.7 km/h 3.7 km/h 33% 0 mm WeatherDisplay:10.37 W/m2 BKN
14:19 14.1 °C -1.6 °C 1024.3 hPa NW 3.7 km/h   34% 0 mm WeatherDisplay:10.37 W/m2 BKN
14:39 14.4 °C -0.1 °C 1023.9 hPa WNW 1.9 km/h   37% 0 mm WeatherDisplay:10.37 W/m2 BKN
14:44 14.6 °C -0.7 °C 1023.9 hPa WNW 1.9 km/h   35% 0 mm WeatherDisplay:10.37 W/m2 BKN
14:50 14.6 °C -0.7 °C 1023.9 hPa Calm   3.2 km/h 35% 0 mm WeatherDisplay:10.37 W/m2 BKN
14:55 14.4 °C -2.1 °C 1023.6 hPa Calm   3.2 km/h 32% 0 mm WeatherDisplay:10.37 W/m2 BKN
15:10 14 °C -2.4 °C 1023.6 hPa WNW 1.9 km/h   32% 0 mm WeatherDisplay:10.37 W/m2 BKN
15:15 13.9 °C -2.1 °C 1023.6 hPa WNW 1.9 km/h   33% 0 mm WeatherDisplay:10.37 W/m2 BKN
15:20 14 °C -2.1 °C 1023.6 hPa NW 1.9 km/h   33% 0 mm WeatherDisplay:10.37 W/m2 BKN
15:25 14.2 °C -0.3 °C 1023.2 hPa NNW 1.9 km/h   37% 0 mm WeatherDisplay:10.37 W/m2 BKN
15:30 14.2 °C -1.4 °C 1023.6 hPa NNW 1.9 km/h 1.9 km/h 34% 0 mm WeatherDisplay:10.37 W/m2 BKN
15:40 14.2 °C -1.1 °C 1023.2 hPa NW 1.9 km/h   35% 0 mm WeatherDisplay:10.37 W/m2 BKN
15:45 14.2 °C -0.3 °C 1023.2 hPa NW 1.9 km/h   37% 0 mm WeatherDisplay:10.37 W/m2 BKN
15:50 14.1 °C -1.2 °C 1023.2 hPa WNW 1.9 km/h   35% 0 mm WeatherDisplay:10.37 W/m2 BKN
16:11 13.3 °C -0.3 °C 1023.2 hPa Calm     39% 0 mm WeatherDisplay:10.37 W/m2 BKN
16:26 13.1 °C 0.1 °C 1023.2 hPa NW 1.9 km/h   41% 0 mm WeatherDisplay:10.37 W/m2 BKN
16:32 12.9 °C 0 °C 1023.2 hPa Calm     41% 0 mm WeatherDisplay:10.37 W/m2 BKN
16:37 12.8 °C -0.1 °C 1022.9 hPa Calm     41% 0 mm WeatherDisplay:10.37 W/m2 BKN
16:42 12.7 °C 0.4 °C 1023.2 hPa Calm     43% 0 mm WeatherDisplay:10.37 W/m2 BKN
16:52 12.4 °C 0.4 °C 1022.9 hPa Calm     44% 0 mm WeatherDisplay:10.37 W/m2 BKN
17:02 12 °C 1.3 °C 1022.9 hPa Calm     48% 0 mm WeatherDisplay:10.37 W/m2 BKN
17:12 11.7 °C 1 °C 1022.9 hPa Calm     48% 0 mm WeatherDisplay:10.37 W/m2 BKN
17:17 11.4 °C 1.4 °C 1022.9 hPa Calm     50% 0 mm WeatherDisplay:10.37 W/m2 BKN
17:27 11 °C 1.5 °C 1022.9 hPa Calm     52% 0 mm WeatherDisplay:10.37 W/m2 BKN
17:32 10.7 °C 1.8 °C 1022.9 hPa Calm     54% 0 mm WeatherDisplay:10.37 W/m2 BKN
17:37 10.6 °C 1.4 °C 1022.9 hPa Calm     53% 0 mm WeatherDisplay:10.37 W/m2 BKN
17:43 10.4 °C 1.4 °C 1022.9 hPa Calm     54% 0 mm WeatherDisplay:10.37 W/m2 BKN
17:53 10.1 °C 1.9 °C 1022.9 hPa Calm     57% 0 mm WeatherDisplay:10.37 W/m2 BKN
17:58 9.9 °C 2.1 °C 1022.9 hPa Calm     58% 0 mm WeatherDisplay:10.37 W/m2 BKN
18:03 9.7 °C 2.1 °C 1022.6 hPa Calm     59% 0 mm WeatherDisplay:10.37 W/m2 CLR
18:08 9.4 °C 2.2 °C 1022.6 hPa Calm     61% 0 mm WeatherDisplay:10.37 W/m2 CLR
18:13 9.2 °C 2.1 °C 1022.6 hPa Calm     61% 0 mm WeatherDisplay:10.37 W/m2 CLR
18:18 8.9 °C 1.6 °C 1022.6 hPa Calm     60% 0 mm WeatherDisplay:10.37 W/m2 CLR
18:23 8.8 °C 1.5 °C 1022.6 hPa Calm     60% 0 mm WeatherDisplay:10.37 W/m2 CLR
18:28 8.9 °C 1.3 °C 1022.9 hPa Calm     59% 0 mm WeatherDisplay:10.37 W/m2 CLR
18:33 8.9 °C 1.6 °C 1022.9 hPa Calm     60% 0 mm WeatherDisplay:10.37 W/m2 CLR
18:38 8.9 °C 1.3 °C 1022.9 hPa Calm     59% 0 mm WeatherDisplay:10.37 W/m2 CLR
18:43 8.8 °C 1.7 °C 1022.9 hPa Calm     61% 0 mm WeatherDisplay:10.37 W/m2 CLR
18:49 8.7 °C 1.6 °C 1022.9 hPa Calm     61% 0 mm WeatherDisplay:10.37 W/m2 CLR
19:04 8.5 °C 1.4 °C 1022.9 hPa Calm     61% 0 mm WeatherDisplay:10.37 W/m2 BKN
19:23 8.4 °C 1.3 °C 1023.6 hPa Calm     61% 0 mm WeatherDisplay:10.37 W/m2 BKN
19:28 8.3 °C 1.7 °C 1023.6 hPa Calm     63% 0 mm WeatherDisplay:10.37 W/m2 BKN
19:31 8.3 °C 1.9 °C 1023.6 hPa Calm     64% 0 mm WeatherDisplay:10.37 W/m2 BKN
19:33 8.3 °C 1.9 °C 1023.6 hPa Calm     64% 0 mm WeatherDisplay:10.37 W/m2 BKN
19:38 8.2 °C 1.6 °C 1023.6 hPa Calm     63% 0 mm WeatherDisplay:10.37 W/m2 BKN
19:46 7.9 °C 2 °C 1023.9 hPa Calm     66% 0 mm WeatherDisplay:10.37 W/m2 BKN
20:07 7.3 °C 2.2 °C 1023.9 hPa Calm     70% 0 mm WeatherDisplay:10.37 W/m2 BKN
20:12 7.2 °C 1.7 °C 1023.9 hPa Calm     68% 0 mm WeatherDisplay:10.37 W/m2 BKN
20:17 7.3 °C 1.6 °C 1023.9 hPa Calm     67% 0 mm WeatherDisplay:10.37 W/m2 BKN
20:42 7.1 °C 1.9 °C 1023.9 hPa Calm     70% 0 mm WeatherDisplay:10.37 W/m2 BKN
20:47 6.9 °C 1.6 °C 1023.9 hPa Calm     69% 0 mm WeatherDisplay:10.37 W/m2 BKN
20:52 6.8 °C 1.3 °C 1023.9 hPa Calm     68% 0 mm WeatherDisplay:10.37 W/m2 BKN
20:57 6.8 °C 1.5 °C 1023.9 hPa Calm     69% 0 mm WeatherDisplay:10.37 W/m2 BKN
21:02 6.8 °C 1.5 °C 1023.9 hPa Calm     69% 0 mm WeatherDisplay:10.37 W/m2 BKN
21:07 6.8 °C 1.3 °C 1023.9 hPa Calm     68% 0 mm WeatherDisplay:10.37 W/m2 BKN
21:13 6.9 °C 1.4 °C 1023.9 hPa Calm     68% 0 mm WeatherDisplay:10.37 W/m2 CLR
21:18 7.1 °C 1.6 °C 1024.3 hPa Calm     68% 0 mm WeatherDisplay:10.37 W/m2 CLR
21:23 6.9 °C 1.4 °C 1023.9 hPa Calm     68% 0 mm WeatherDisplay:10.37 W/m2 CLR
21:28 6.8 °C 1.6 °C 1023.9 hPa Calm     69% 0 mm WeatherDisplay:10.37 W/m2 CLR
21:38 6.4 °C 1.6 °C 1023.9 hPa Calm     71% 0 mm WeatherDisplay:10.37 W/m2 CLR
21:44 6.4 °C 1.3 °C 1023.9 hPa Calm     70% 0 mm WeatherDisplay:10.37 W/m2 CLR
21:54 6.4 °C 1.6 °C 1023.9 hPa Calm     71% 0 mm WeatherDisplay:10.37 W/m2 CLR
22:04 6.2 °C 1.3 °C 1023.9 hPa Calm     71% 0 mm WeatherDisplay:10.37 W/m2 BKN
22:09 6.1 °C 1.4 °C 1023.9 hPa Calm     72% 0 mm WeatherDisplay:10.37 W/m2 BKN
22:16 5.9 °C 1.3 °C 1023.9 hPa Calm     72% 0 mm WeatherDisplay:10.37 W/m2 BKN
22:22 5.9 °C 1.2 °C 1023.9 hPa Calm     72% 0 mm WeatherDisplay:10.37 W/m2 BKN
22:25 5.9 °C 1.3 °C 1023.9 hPa Calm     72% 0 mm WeatherDisplay:10.37 W/m2 BKN
22:29 6 °C 1.5 °C 1023.9 hPa Calm     73% 0 mm WeatherDisplay:10.37 W/m2 BKN
22:31 6 °C 1.5 °C 1023.9 hPa Calm     73% 0 mm WeatherDisplay:10.37 W/m2 BKN
22:36 6 °C 1.3 °C 1023.9 hPa Calm     72% 0 mm WeatherDisplay:10.37 W/m2 BKN
22:41 6 °C 1.3 °C 1023.9 hPa Calm     72% 0 mm WeatherDisplay:10.37 W/m2 BKN
22:46 5.9 °C 1.3 °C 1023.9 hPa Calm     72% 0 mm WeatherDisplay:10.37 W/m2 BKN
22:52 5.9 °C 1.4 °C 1023.9 hPa Calm     73% 0 mm WeatherDisplay:10.37 W/m2 BKN
23:07 5.7 °C 1.8 °C 1023.9 hPa Calm     76% 0 mm WeatherDisplay:10.37 W/m2 BKN
23:17 5.4 °C 1.7 °C 1023.9 hPa Calm     77% 0 mm WeatherDisplay:10.37 W/m2 BKN
23:23 5.3 °C 1.6 °C 1023.9 hPa Calm     77% 0 mm WeatherDisplay:10.37 W/m2 BKN
23:28 5.3 °C 1.6 °C 1023.9 hPa Calm     77% 0 mm WeatherDisplay:10.37 W/m2 BKN
23:38 5.4 °C 1.4 °C 1024.3 hPa Calm     75% 0 mm WeatherDisplay:10.37 W/m2 BKN
23:48 5.5 °C 1.4 °C 1024.3 hPa Calm     75% 0 mm WeatherDisplay:10.37 W/m2 BKN
23:59 5.5 °C 1.4 °C 1024.3 hPa Calm     75% 0 mm WeatherDisplay:10.37 W/m2 BKN
Piedmont Bend
Compliments of Weather Underground - 4 mb